Wind_Speed
12 14 15 18 21 25 27 29 30 31 31 30 29 27 25 22 18 15 14 12 11 11 11 12 13 14 16 17 19 19 21 22 23 23 22 20 18 17 17 17 17 17 16 16 15 15 14 13 13 11 11 10 10 10 10 11 11 11 11 11 10 9 8 8 7 6 5 4 4 3 3 3 3 3 2 0 0 1 2 2 3 3 3 3 3
14 15 16 20 23 26 28 30 31 31 31 30 30 27 24 22 18 15 13 12 11 11 11 12 12 14 15 17 18 19 20 22 23 23 21 20 18 17 17 17 17 16 15 15 15 14 14 14 13 12 11 10 10 10 11 11 11 12 12 11 10 9 9 8 7 6 5 4 4 3 3 3 3 3 2 1 1 1 2 3 3 3 3 2 3
17 18 19 22 25 27 29 31 31 32 31 30 29 26 24 21 18 14 13 12 11 11 11 11 12 13 14 16 17 18 20 21 22 22 21 19 18 17 16 16 16 16 15 14 14 14 14 13 13 13 12 11 10 10 11 11 12 12 12 11 10 10 9 8 8 7 6 5 5 4 4 4 3 3 2 2 1 1 2 3 3 3 2 2 2
19 19 21 24 26 29 30 31 32 32 31 30 28 25 23 20 17 14 13 12 11 11 11 11 11 13 14 15 17 18 19 20 22 22 21 19 17 16 15 15 15 15 14 14 13 13 13 13 13 13 13 12 11 11 11 11 12 12 12 11 10 9 9 8 8 8 7 6 6 5 5 4 3 3 2 2 1 1 2 3 4 3 2 2 2
20 20 23 25 28 30 31 32 31 31 30 29 27 24 22 20 16 13 12 11 11 11 10 10 11 12 13 15 16 17 18 20 21 21 20 18 17 16 15 14 14 14 14 13 13 13 13 13 13 13 13 13 12 12 12 12 12 12 12 11 10 9 8 8 8 8 7 7 7 6 6 4 3 3 2 2 1 1 2 3 3 3 3 2 2
21 21 23 26 29 31 32 32 31 30 29 28 26 23 20 18 16 13 12 11 11 11 10 10 11 12 13 14 15 16 17 19 21 21 20 18 16 15 14 14 14 13 13 13 13 13 13 13 12 12 13 13 12 12 12 13 13 13 12 11 10 9 8 8 8 8 7 7 7 7 6 4 3 3 2 2 2 1 2 3 4 4 3 2 1
22 23 25 27 29 31 32 31 31 30 28 27 24 22 19 17 14 12 12 11 11 11 10 10 10 12 13 14 15 16 17 18 20 21 20 18 16 15 14 13 13 13 13 13 13 13 12 12 12 12 12 12 12 12 12 13 13 13 12 11 9 9 8 8 8 8 8 7 7 6 6 5 4 4 3 2 2 2 2 3 4 4 3 3 2
22 24 25 28 30 31 32 31 30 29 27 25 23 20 18 16 13 12 11 11 11 11 10 10 10 11 12 13 14 15 16 18 19 20 20 18 16 14 13 13 13 13 13 13 13 13 12 12 12 12 12 12 12 12 12 13 13 13 12 10 9 8 7 8 8 8 8 7 7 6 6 5 5 4 3 3 2 3 3 3 4 4 4 3 3
24 26 27 28 30 31 31 31 30 29 26 24 22 20 17 14 13 12 11 12 11 10 10 10 10 11 12 13 14 14 15 17 19 20 20 18 16 14 13 12 12 13 13 13 13 13 13 12 12 12 12 12 12 12 12 13 13 12 11 10 9 8 7 7 7 8 8 8 7 7 7 6 5 4 4 3 3 3 3 4 4 4 5 5 4
26 27 28 29 31 32 32 31 30 29 26 24 21 19 16 13 12 11 11 12 11 10 10 10 10 10 12 12 13 13 14 16 18 20 20 18 16 14 12 12 12 12 13 13 14 14 14 13 12 12 12 12 12 12 12 13 12 12 11 10 9 8 7 7 7 8 8 8 8 8 8 7 6 5 4 4 4 3 4 4 4 5 6 6 5
28 28 29 30 31 32 32 31 30 28 26 23 21 18 15 12 11 11 12 12 11 10 10 9 9 10 11 12 12 13 14 16 18 20 19 18 15 13 12 12 12 12 13 13 14 14 14 14 13 13 13 13 13 13 13 13 13 12 12 11 10 9 8 8 7 7 8 8 9 8 8 7 7 6 6 5 4 4 4 4 5 5 6 6 6
28 28 29 30 31 32 32 31 29 27 25 22 20 17 14 12 11 11 12 12 11 10 9 9 9 9 10 11 12 12 13 15 18 19 19 17 15 13 12 12 12 12 13 13 14 14 14 14 14 13 13 13 14 13 13 13 13 13 13 12 11 10 10 9 8 8 8 8 8 8 8 7 7 6 6 6 5 5 5 5 5 6 6 6 6
28 28 29 30 30 31 31 30 28 26 24 22 19 15 13 12 11 11 12 11 11 10 9 9 9 9 10 11 11 12 13 15 17 19 19 17 15 12 11 11 11 11 12 13 14 14 15 15 14 14 13 13 14 14 14 14 14 14 14 13 12 12 11 10 9 8 7 7 7 8 8 7 7 6 6 5 5 5 5 5 5 6 6 6 6
28 28 29 30 31 31 31 29 27 25 23 21 17 14 13 11 11 11 11 11 11 10 9 9 8 8 9 10 10 11 12 14 17 18 18 17 15 12 11 11 10 11 12 13 14 14 15 15 16 16 15 15 15 15 15 15 15 15 15 14 12 12 11 10 9 8 7 6 7 7 8 7 7 6 6 5 5 5 4 4 5 5 5 5 6
28 29 30 31 31 31 30 28 26 24 22 19 16 13 12 11 11 11 11 11 10 10 9 9 8 8 9 9 10 10 12 14 16 17 18 16 14 12 11 10 10 11 12 13 13 14 15 15 16 17 17 16 16 16 16 16 16 16 16 15 13 11 12 12 11 9 8 7 7 7 8 8 7 7 6 6 5 5 5 5 5 5 6 6 6
28 29 30 31 31 31 29 27 25 23 21 18 15 12 12 11 11 11 11 11 10 10 9 9 8 8 9 9 9 10 11 13 15 17 17 16 14 12 11 10 10 11 11 12 13 14 15 15 17 18 18 17 17 16 17 17 17 16 16 16 15 13 12 12 12 11 11 9 8 8 7 7 8 8 8 7 6 6 6 6 6 6 6 7 7
28 29 31 32 31 30 27 25 24 21 19 16 13 12 12 11 11 11 11 11 10 9 10 10 9 9 9 8 8 9 11 12 14 16 16 15 13 11 10 10 10 10 11 12 13 14 14 15 17 18 18 18 17 17 17 17 17 17 16 16 15 14 12 12 11 11 11 10 10 9 8 7 8 8 8 8 7 7 7 7 7 7 8 8 8
29 30 32 31 30 28 25 24 22 20 17 14 13 13 12 12 11 11 11 10 10 10 10 10 9 9 9 8 8 9 10 11 13 14 15 15 13 11 10 10 10 10 10 11 12 13 14 15 17 18 17 18 18 18 17 17 17 17 17 16 15 14 13 11 11 11 11 10 10 9 8 7 7 8 8 8 8 8 8 8 8 8 9 9 10
30 32 31 30 28 26 24 22 21 18 16 14 14 13 13 13 12 11 11 10 10 10 11 10 10 9 9 8 8 9 10 11 12 13 14 14 13 11 10 10 10 10 10 10 11 12 13 15 17 17 17 17 18 18 18 18 17 17 17 16 16 15 14 13 11 11 10 10 10 9 8 8 7 7 7 7 8 8 8 8 9 9 9 10 10
30 31 30 28 27 25 23 21 20 17 15 15 15 14 13 13 13 12 11 11 10 10 11 11 11 10 9 9 8 9 9 10 12 13 13 13 12 10 10 10 10 10 9 9 10 11 13 14 16 17 16 16 17 17 17 18 18 17 17 17 16 16 15 14 12 13 12 11 10 9 9 9 9 8 7 7 7 7 7 8 8 9 10 10 11
30 31 29 28 26 24 22 21 19 17 16 15 15 14 14 14 13 12 11 11 11 12 12 12 11 11 10 10 9 8 8 9 11 12 12 12 10 9 9 10 10 10 9 9 10 11 12 13 14 15 14 15 16 17 17 17 17 17 17 17 17 16 15 14 12 13 12 11 10 8 8 9 10 9 8 8 7 7 7 7 8 8 9 10 11
31 32 29 27 26 23 22 20 18 17 16 15 15 15 14 14 13 12 11 11 12 12 12 12 12 11 11 10 9 8 8 8 10 11 12 12 10 9 9 9 9 10 9 9 9 10 11 12 13 14 14 14 15 16 17 17 17 17 18 17 17 16 15 14 13 14 13 11 10 9 8 9 9 9 9 9 8 8 8 7 7 8 9 10 11
32 32 29 27 25 23 21 20 18 17 16 16 15 15 15 15 14 12 11 12 12 13 13 13 12 12 11 11 9 8 8 8 9 10 11 11 11 10 9 8 8 9 9 9 9 10 11 12 13 13 13 13 14 15 16 17 17 17 18 18 17 16 15 15 14 14 15 13 11 11 10 9 9 9 9 9 9 9 9 8 8 8 9 10 11
33 31 28 26 25 22 21 19 18 18 17 16 16 16 16 15 14 12 12 12 12 13 13 13 12 13 12 11 9 8 7 8 9 10 10 11 11 11 11 10 9 9 9 9 10 10 10 11 12 13 13 12 13 14 15 16 16 17 17 18 18 16 15 15 14 13 15 15 14 12 11 10 9 9 9 9 9 9 9 9 9 9 10 10 11
32 29 27 25 24 22 20 19 19 18 18 17 17 17 17 16 14 13 12 12 13 13 13 13 14 14 13 11 10 8 7 8 9 9 9 10 11 12 12 12 12 11 11 11 11 11 11 11 12 13 12 12 11 13 15 16 16 16 17 17 17 17 16 15 15 13 14 15 15 13 12 11 10 9 9 9 9 9 9 9 9 9 10 10 11
30 28 26 26 24 22 21 20 19 19 18 18 18 18 17 16 15 14 13 13 13 13 13 14 15 15 13 12 11 9 8 9 9 9 9 9 10 11 12 13 13 13 13 13 13 13 13 12 12 12 13 12 11 12 13 15 16 17 17 16 16 16 16 15 14 13 12 14 15 15 13 11 10 10 9 9 10 9 9 9 9 9 10 11 11
29 28 26 25 23 22 20 19 19 19 18 19 19 19 18 17 16 15 14 13 14 14 14 15 16 15 14 12 11 9 9 10 10 9 8 9 9 10 11 12 13 14 15 15 15 15 16 15 14 14 14 14 13 12 12 12 14 16 17 17 17 16 16 16 15 13 12 13 14 15 14 13 11 11 10 10 10 10 9 9 9 9 10 11 11
28 27 26 25 23 21 20 20 20 19 19 19 20 19 18 17 17 16 15 14 14 14 14 15 16 16 14 13 11 11 11 11 10 9 8 8 9 10 11 12 13 13 15 16 16 16 17 17 17 17 17 17 17 15 13 12 12 13 14 16 17 17 17 17 16 15 13 13 14 14 14 14 12 11 11 11 11 10 10 9 10 9 10 10 10
26 26 25 24 22 21 20 20 20 20 20 20 20 20 19 19 18 17 16 15 14 14 15 16 16 16 15 14 13 12 12 12 10 9 9 9 9 10 10 11 12 13 14 15 16 16 17 17 18 18 19 19 19 19 16 14 13 13 13 14 15 16 17 17 17 16 15 14 14 14 14 14 13 11 10 11 11 11 10 10 10 10 10 10 10
26 26 25 23 22 22 20 20 20 21 21 21 20 20 20 20 19 18 17 16 15 15 16 16 16 17 16 15 14 14 13 12 11 9 9 9 9 9 10 11 11 13 13 14 15 15 16 16 17 18 18 19 19 20 18 16 14 14 14 15 15 16 17 18 18 18 16 15 15 14 14 14 14 13 11 10 11 11 11 11 11 11 10 10 9
25 26 25 23 23 22 21 21 20 21 22 21 21 21 21 20 20 19 18 16 16 16 16 16 17 17 17 16 15 15 14 13 12 10 9 9 9 8 9 9 10 12 12 13 13 14 15 15 16 17 17 17 18 19 19 18 17 15 14 15 16 17 17 18 18 19 18 17 16 16 15 14 14 14 13 11 10 11 12 12 12 12 12 11 10
26 26 25 24 24 22 22 21 21 23 23 21 20 21 22 21 20 20 19 18 18 18 17 17 18 18 17 17 17 16 15 14 13 11 10 9 9 8 8 9 10 11 12 13 13 14 15 15 16 16 17 17 17 17 17 17 17 17 15 14 15 17 18 18 18 19 19 18 18 18 17 16 15 14 14 12 11 11 12 13 12 12 12 12 11
28 28 27 26 25 24 24 22 22 23 22 21 21 22 22 21 21 21 19 19 20 18 17 19 19 19 18 18 18 17 16 15 13 12 11 11 10 9 8 9 10 11 12 13 13 14 15 15 16 17 17 17 17 17 16 16 16 16 16 16 16 16 17 18 19 19 20 19 19 19 19 18 17 16 15 14 13 12 11 12 13 12 12 13 13
32 30 29 28 26 25 24 23 23 23 22 21 21 22 22 21 22 22 20 21 20 19 19 20 20 19 18 19 18 17 16 16 14 13 12 12 11 10 10 10 10 10 11 12 13 14 15 16 16 17 17 17 18 17 16 16 16 16 16 17 17 17 17 18 19 20 20 20 19 19 20 20 19 18 16 15 15 14 12 11 12 13 13 13 14
36 35 33 30 26 26 25 23 23 22 21 21 22 23 23 22 23 22 21 22 21 20 21 21 20 20 19 19 18 18 17 16 14 13 13 12 12 11 11 11 11 11 11 12 13 14 15 16 16 17 18 18 18 18 17 17 16 16 17 17 18 18 18 18 18 19 20 21 21 20 20 20 20 19 18 17 15 15 14 12 12 13 13 14 15
38 36 33 29 26 26 24 22 22 22 22 22 23 23 23 22 22 22 22 22 21 21 22 21 21 21 20 19 18 18 17 16 15 14 13 13 12 12 12 11 11 11 11 12 13 13 15 15 16 16 17 18 19 19 18 17 17 18 18 19 19 20 20 19 19 20 20 21 21 21 20 20 20 20 20 19 17 15 15 14 13 13 13 14 16
36 34 30 27 25 24 22 22 21 22 22 22 22 22 20 20 20 21 20 21 21 22 22 23 24 23 21 19 19 18 17 16 15 14 14 13 13 13 12 12 12 11 11 12 13 13 14 15 16 17 18 19 19 19 18 17 18 18 18 19 21 22 22 22 22 22 21 21 21 22 22 22 21 20 20 20 19 17 16 15 15 14 14 15 16
34 33 31 28 26 23 22 21 21 22 22 21 21 20 18 19 19 19 19 19 20 21 22 25 27 26 22 20 19 18 17 16 15 14 14 14 14 14 13 13 12 11 11 12 13 14 15 16 16 17 18 19 19 19 18 18 18 18 18 19 21 22 23 23 24 23 23 23 22 22 23 23 22 21 21 20 19 18 17 16 17 17 16 16 16
33 32 32 28 24 22 21 20 21 22 21 21 20 18 18 19 18 17 18 19 20 20 20 22 24 24 21 20 19 18 17 16 15 14 14 14 14 14 13 13 13 12 12 12 13 14 15 16 17 17 18 19 20 19 19 19 18 19 19 19 20 21 23 24 24 24 23 24 24 24 24 24 23 23 22 20 19 19 18 18 18 18 18 17 17
32 31 31 26 22 21 20 21 22 21 20 21 20 18 18 18 17 18 19 20 20 20 20 19 20 20 20 19 19 18 17 15 15 14 15 15 15 14 14 14 13 13 13 13 14 14 15 16 17 18 19 19 20 20 20 20 20 19 19 20 20 21 23 24 25 25 25 24 25 25 25 25 25 24 22 21 20 19 19 19 20 19 18 19 18
30 29 29 24 20 20 20 21 21 20 20 20 19 18 18 18 18 19 20 20 20 21 20 20 19 19 19 19 18 16 16 15 14 15 15 16 15 15 15 14 14 14 14 14 14 15 15 16 17 18 19 20 20 21 21 21 21 20 20 20 20 21 23 23 25 26 26 26 26 25 26 26 26 24 23 23 22 20 20 19 20 20 19 20 20
27 27 27 24 22 22 22 22 20 21 21 20 19 19 19 19 19 20 21 20 20 20 20 20 19 18 18 19 17 16 15 15 15 15 16 16 16 16 16 15 14 15 15 15 15 15 16 16 17 18 19 20 21 21 21 22 22 22 21 20 21 22 23 23 24 25 26 27 27 27 26 27 26 23 22 24 24 22 22 21 21 21 21 21 21
30 30 30 29 27 26 25 24 21 20 20 20 20 19 19 19 19 20 21 20 19 19 19 20 21 20 20 19 17 15 15 15 15 16 16 16 16 16 16 15 15 16 16 16 16 16 17 18 18 19 19 20 21 22 22 22 22 22 22 21 21 21 23 23 24 25 25 25 26 27 26 27 28 26 21 21 23 24 24 23 23 23 23 22 23
34 35 34 34 33 31 29 26 23 21 20 20 20 20 20 20 20 20 21 20 19 20 20 21 22 23 23 20 16 16 16 16 16 16 16 16 16 16 15 15 16 16 16 16 16 17 18 19 19 20 20 21 22 22 23 23 23 23 23 23 22 22 22 23 23 25 25 25 25 26 26 26 28 29 26 21 21 23 25 25 25 24 24 24 24
36 36 35 36 36 32 30 29 25 22 21 20 20 20 20 20 21 21 22 21 20 19 18 19 21 22 22 19 15 16 17 16 16 16 16 16 16 15 15 15 16 17 17 17 17 18 19 20 21 21 21 22 23 23 24 24 24 24 24 24 24 23 23 23 23 25 26 26 26 26 26 27 28 30 30 27 22 22 25 26 26 25 24 24 24
37 36 36 37 33 29 28 29 28 25 23 22 20 21 21 21 22 21 22 22 21 19 18 19 20 21 21 16 14 17 18 16 16 16 16 16 15 15 15 15 16 17 17 17 18 19 20 20 21 22 23 23 24 24 25 25 25 25 25 26 26 25 25 25 24 25 27 28 28 27 27 27 28 29 31 31 27 23 24 26 27 26 26 25 25
35 35 38 38 33 28 27 26 26 26 26 24 22 21 20 21 22 22 22 23 22 22 20 19 21 22 22 18 15 18 18 16 16 16 16 16 15 15 15 15 16 16 17 18 19 19 20 21 21 22 24 24 24 24 25 25 26 26 26 26 27 27 27 27 27 26 26 28 29 29 29 28 28 29 30 31 30 27 26 27 28 28 27 26 26
33 33 36 35 33 30 28 25 23 24 25 24 22 20 20 20 21 22 23 23 23 22 21 19 21 23 24 20 17 18 17 16 16 16 16 16 15 15 14 14 15 16 17 18 19 20 21 22 23 24 24 25 24 24 24 25 25 26 27 27 27 27 28 28 28 28 27 27 28 29 30 30 29 29 29 29 29 30 30 29 28 28 28 27 26
36 36 34 28 27 27 26 25 23 21 21 23 23 21 20 20 20 22 22 23 22 22 21 19 20 23 22 19 17 18 17 16 16 16 16 15 15 14 14 14 15 16 17 18 19 20 22 23 24 24 25 25 25 25 25 25 26 26 27 28 28 28 29 29 29 29 29 27 27 28 29 29 29 29 27 27 28 29 30 30 28 27 26 26 26
31 33 31 25 23 24 22 21 21 20 19 19 21 21 20 20 20 22 22 22 21 21 21 20 20 22 21 18 17 17 16 16 16 16 16 15 15 14 14 14 15 16 18 19 20 21 22 22 23 24 24 25 25 25 26 26 27 27 28 29 29 29 30 30 30 30 30 28 28 28 28 27 26 27 27 27 29 29 29 29 28 26 25 25 25
24 21 22 21 20 20 20 19 19 18 17 16 19 21 21 20 19 20 20 19 19 20 21 21 20 20 21 18 17 17 15 15 16 16 16 15 15 14 14 15 16 17 18 19 20 21 21 21 22 23 24 24 25 26 27 27 28 28 29 29 30 30 30 30 31 31 30 29 28 28 29 28 27 27 28 28 28 29 28 28 27 26 25 25 25
Wind_Direction
311 315 316 319 324 326 327 327 327 328 330 331 332 334 333 331 327 323 321 310 302 307 316 325 331 335 339 345 351 354 356 357 358 359 -0 2 4 7 9 10 10 12 14 14 13 11 8 5 2 360 358 358 356 355 353 353 356 358 360 359 355 349 344 340 338 338 341 345 349 354 353 346 335 327 327 328 128 144 156 148 126 104 93 94 92
312 313 316 320 323 325 325 324 325 325 327 327 328 330 329 326 323 320 318 309 300 303 311 321 328 333 337 343 349 353 355 356 357 358 359 1 4 7 9 10 11 13 16 16 15 12 10 8 5 2 0 358 357 355 354 354 355 358 359 359 357 353 348 342 337 335 335 337 338 337 336 334 327 320 323 310 251 177 172 166 149 116 90 82 86
309 311 316 320 322 322 322 322 323 323 324 324 324 326 325 322 320 317 314 307 298 299 307 317 325 330 335 340 346 351 354 355 356 358 358 360 3 6 9 10 11 14 18 19 17 14 11 10 9 6 3 359 357 356 355 355 357 359 358 358 358 356 353 346 340 339 337 334 333 327 329 334 328 311 303 294 265 213 184 175 170 146 115 84 80
305 310 315 319 321 320 320 320 320 321 321 321 321 322 321 319 318 313 311 305 296 296 303 315 323 328 333 338 344 350 353 354 355 357 357 359 2 5 9 10 11 15 19 21 19 16 13 11 11 9 6 2 359 358 357 357 358 359 358 357 358 358 356 349 343 341 340 336 333 328 328 336 340 327 310 300 268 220 198 182 179 169 148 114 97
301 307 313 317 319 317 317 317 318 318 318 317 317 318 317 315 314 310 309 303 295 294 300 312 321 326 331 335 342 348 351 353 354 356 357 359 0 4 8 10 12 15 20 23 21 18 16 13 11 9 7 4 1 0 359 358 358 358 356 355 355 357 357 352 346 343 343 339 336 331 329 336 350 348 337 328 296 233 210 191 184 181 169 150 130
299 305 309 313 314 314 314 315 316 315 315 314 314 315 314 312 311 308 307 302 294 292 298 310 319 324 329 334 341 347 350 352 353 355 357 358 359 3 7 10 12 14 19 23 23 21 18 15 12 9 8 7 6 4 2 0 359 357 354 352 353 356 359 356 349 345 344 340 337 334 334 339 347 349 344 330 302 258 218 203 194 188 180 175 170
298 304 306 309 310 311 313 313 314 312 312 311 312 313 311 309 308 308 306 301 293 290 296 307 316 323 328 332 339 345 348 350 353 354 356 357 357 1 6 9 11 12 15 20 23 22 20 16 13 11 10 12 13 10 7 3 359 357 353 351 352 357 1 359 353 348 344 339 338 337 338 340 342 341 333 308 279 255 219 206 203 199 192 188 193
297 302 304 307 309 311 312 312 312 310 310 309 310 310 309 307 305 307 305 298 291 288 293 304 314 321 326 330 337 342 346 349 351 353 355 355 356 0 5 8 10 9 11 17 22 23 21 18 15 12 11 12 14 11 6 2 1 1 357 353 354 358 2 1 356 350 345 340 337 337 336 338 341 340 330 305 270 250 227 205 202 205 204 203 207
295 300 304 307 309 311 311 311 309 308 308 307 308 307 305 303 302 305 303 297 289 287 291 300 312 320 324 328 335 340 345 348 350 352 354 354 355 360 4 7 8 8 9 15 21 23 23 22 19 15 12 10 8 6 3 2 4 7 6 0 357 357 1 2 357 355 349 344 340 338 334 333 335 335 328 311 282 254 236 214 204 206 210 211 215
293 299 304 307 310 311 310 308 306 305 305 304 304 302 301 298 299 303 301 294 287 286 289 298 310 318 321 325 332 338 343 345 348 351 352 353 355 359 3 7 8 8 12 16 21 25 27 27 25 20 16 13 11 11 9 8 9 12 12 8 2 358 360 360 359 359 353 350 347 339 333 329 327 323 320 312 297 271 250 232 217 212 215 218 221
291 297 302 306 309 309 306 304 302 301 301 300 299 298 296 294 295 299 297 290 285 284 286 296 307 315 318 323 330 335 341 343 346 349 351 352 354 359 2 6 9 10 15 18 21 25 27 29 28 26 22 19 19 19 17 15 14 14 14 12 9 4 3 0 359 359 356 357 350 337 333 329 323 318 314 312 305 290 269 250 234 223 221 224 228
288 294 299 304 306 304 302 299 297 297 297 296 294 293 290 291 293 294 293 287 283 282 283 292 303 311 314 320 327 333 338 341 344 348 350 351 354 358 2 7 11 12 16 18 20 23 25 27 28 27 25 23 23 22 21 19 17 16 15 14 12 9 9 6 0 357 356 357 347 337 338 333 326 318 312 311 305 294 282 265 250 237 231 231 233
287 292 297 302 303 300 298 295 294 295 294 292 291 288 287 290 291 291 289 284 281 280 281 288 299 306 310 317 323 330 336 339 342 347 349 351 354 357 3 8 11 12 15 17 20 22 24 25 27 27 25 24 24 24 24 22 21 20 17 16 15 14 14 12 4 357 354 352 347 345 343 337 331 321 313 310 301 291 282 271 260 249 242 240 240
286 291 297 301 300 298 295 292 293 293 291 289 287 284 286 289 288 289 286 282 280 277 279 284 294 301 305 313 320 328 333 336 340 346 349 352 355 357 3 7 10 11 14 17 20 22 24 26 27 28 26 24 25 26 26 25 24 22 20 18 19 21 20 19 11 2 360 354 352 352 348 343 336 328 321 313 301 290 280 270 263 258 253 250 250
285 291 297 300 298 294 291 290 291 291 288 286 283 283 287 288 286 286 283 280 278 275 276 281 290 295 300 307 315 324 329 333 339 345 350 353 355 356 2 7 9 10 13 18 20 23 26 28 29 29 29 27 26 25 25 26 25 24 23 22 22 25 27 27 19 11 11 1 354 354 352 348 341 335 328 320 310 298 288 278 269 264 261 259 258
285 291 295 297 295 290 288 289 289 287 285 282 280 284 287 286 283 282 280 277 274 273 274 279 285 289 294 302 311 321 326 330 337 344 349 353 355 357 2 7 8 9 14 18 20 24 27 29 29 29 29 29 27 24 23 23 23 23 24 24 24 24 27 30 22 17 19 9 359 353 349 348 343 338 331 326 319 308 296 286 278 272 267 265 264
285 289 293 294 291 286 285 286 285 284 281 278 276 283 285 281 279 278 277 275 273 271 271 275 277 281 287 296 307 316 321 327 336 344 350 354 356 357 2 6 6 8 14 18 22 25 27 28 27 28 30 30 29 25 21 19 19 19 21 24 24 22 23 26 18 16 21 15 5 354 344 340 338 336 332 327 322 314 304 293 285 279 275 272 270
285 288 291 290 285 281 282 281 280 280 276 273 275 280 281 276 274 273 274 274 273 270 268 269 270 275 282 290 301 310 316 323 334 345 351 355 357 358 1 3 3 6 13 17 22 26 26 25 25 28 30 31 31 28 24 20 17 15 17 19 21 20 20 20 10 9 16 11 6 359 348 339 332 332 330 327 322 315 309 301 295 289 285 282 280
284 287 289 284 278 277 277 277 276 275 272 271 274 277 276 272 269 270 272 273 272 267 263 263 266 271 275 284 294 303 313 320 333 345 353 357 357 357 360 1 1 3 10 14 18 22 23 22 22 25 29 30 30 30 28 23 19 15 15 16 16 16 17 18 4 1 9 3 1 1 356 348 336 328 324 324 320 314 309 305 302 298 295 291 289
283 287 285 277 274 275 274 273 272 273 271 270 271 273 272 269 267 267 268 270 268 262 258 259 262 266 270 277 286 298 310 318 331 343 352 358 358 358 359 359 359 1 6 9 11 15 17 17 18 21 25 26 27 29 28 25 22 17 16 15 15 13 15 16 1 355 4 360 357 2 2 358 348 335 323 316 311 308 304 302 302 301 298 294 291
282 285 280 272 271 272 271 270 270 272 270 269 269 270 269 266 265 264 264 265 264 259 256 257 260 263 267 273 281 294 305 314 328 340 350 359 0 359 358 357 358 359 1 2 4 7 9 11 14 17 20 21 21 23 25 23 21 19 17 15 15 13 11 15 3 350 358 359 354 355 356 355 351 344 332 316 305 298 293 293 295 296 295 294 292
280 281 273 268 268 269 268 267 268 269 268 267 267 267 265 263 263 261 260 262 261 258 255 255 258 260 262 269 278 289 297 308 324 337 347 354 357 358 357 356 356 356 357 355 355 359 2 4 7 11 14 15 15 16 18 18 17 16 15 13 14 14 10 12 8 350 352 359 351 344 342 340 343 344 337 323 309 295 287 283 282 284 285 288 289
279 275 267 263 265 266 266 266 266 266 265 266 266 264 262 261 261 259 258 259 259 257 254 255 256 256 258 264 272 281 288 301 318 332 343 349 352 355 356 355 353 352 354 351 349 352 354 357 359 4 8 9 9 9 11 12 13 12 11 10 10 13 11 10 10 354 348 354 351 345 342 337 335 338 337 327 314 300 289 283 277 275 276 279 282
275 268 261 261 264 264 264 264 264 263 263 264 264 261 259 259 259 256 255 256 258 257 254 254 252 251 254 259 265 273 280 295 311 325 337 344 348 352 354 352 349 348 348 347 346 347 350 352 353 356 2 4 2 1 2 4 7 8 7 8 8 11 13 11 12 0 347 349 349 346 344 340 335 332 333 330 321 305 292 284 279 274 274 278 281
269 263 259 261 262 263 263 262 262 261 261 262 262 259 257 258 257 254 253 254 256 256 254 252 249 248 250 254 258 264 273 286 300 315 329 339 345 349 352 350 348 346 344 344 342 342 344 349 349 349 353 357 358 355 354 354 358 3 4 6 6 7 9 10 12 6 349 345 346 346 342 339 336 330 324 325 324 313 296 285 279 276 277 280 283
261 257 257 259 260 261 261 261 260 258 259 260 260 258 257 257 255 252 251 253 255 256 254 251 248 247 246 248 254 259 265 274 287 303 318 332 342 346 348 348 347 346 345 345 342 339 338 341 343 341 343 347 351 352 351 350 351 355 359 2 4 3 3 3 8 8 353 345 344 344 342 336 334 331 324 318 319 316 304 288 279 276 278 281 285
252 252 254 257 258 259 259 260 259 257 257 257 258 257 257 256 253 252 250 251 254 255 254 251 248 246 243 243 250 255 260 266 276 291 307 323 334 339 344 346 347 346 346 346 344 341 338 338 337 335 335 337 341 347 351 349 348 351 355 357 358 -0 1 358 360 4 356 347 344 342 341 338 333 331 328 321 315 312 306 293 282 276 277 282 285
247 249 253 255 256 257 257 258 258 257 256 255 256 256 256 254 252 251 250 250 253 255 255 252 249 246 242 240 245 249 254 260 269 282 299 314 323 331 339 343 346 347 346 346 345 342 339 338 336 333 332 333 336 342 346 348 348 350 354 355 353 355 357 354 354 359 355 346 343 341 339 339 334 328 324 321 316 311 305 295 284 277 277 282 286
246 249 252 253 254 254 254 254 255 255 254 253 254 255 254 252 252 251 250 251 253 255 255 253 250 247 244 241 242 245 249 256 265 277 293 305 313 324 334 340 343 346 345 344 343 341 339 337 335 332 331 331 333 336 340 344 346 347 352 353 351 351 352 349 350 354 354 346 342 339 337 337 335 329 322 317 313 308 303 295 285 277 273 277 283
246 249 250 250 250 250 250 250 252 251 251 252 252 253 252 251 252 251 250 251 252 254 254 253 252 250 247 245 243 243 246 252 260 269 283 296 305 316 327 334 338 341 342 342 340 339 337 334 330 328 328 328 329 330 332 336 339 343 349 350 347 348 348 345 345 347 349 347 341 337 335 333 332 330 326 319 311 305 301 296 286 277 271 270 275
245 248 247 247 246 246 246 246 248 249 249 249 250 250 250 252 252 252 251 250 251 253 254 256 254 252 251 249 246 244 246 249 254 262 274 285 294 305 317 326 331 334 337 340 339 337 334 331 328 326 325 324 324 323 325 329 332 337 344 348 345 344 344 342 342 341 342 343 341 338 334 330 327 327 326 323 314 305 301 299 291 279 273 269 269
241 245 243 242 242 242 242 242 243 246 246 246 247 248 250 252 252 252 252 251 252 253 255 257 256 255 254 252 249 246 247 249 252 259 267 276 283 293 304 313 320 326 333 337 338 337 335 334 331 329 326 324 322 320 321 323 325 330 336 342 341 340 340 339 338 337 336 338 339 338 336 330 325 322 320 319 314 308 302 300 296 284 273 268 266
238 240 240 239 239 239 238 238 240 242 244 244 246 248 251 253 252 253 253 253 254 254 256 257 257 257 255 253 251 249 248 250 253 258 264 271 278 287 294 302 311 321 331 336 337 338 338 337 335 332 330 326 322 319 318 318 320 324 329 334 336 336 336 336 335 333 332 333 335 335 334 331 327 322 317 313 310 308 304 299 296 288 274 264 263
238 236 236 236 234 235 235 235 238 240 242 243 245 249 251 252 253 254 254 256 257 256 255 256 257 257 255 252 251 250 250 251 254 259 264 270 277 284 290 298 307 318 329 334 336 338 340 340 337 335 332 327 323 320 317 316 316 319 324 328 329 330 332 332 331 330 329 329 330 331 331 330 327 324 318 312 307 304 300 295 290 287 279 267 261
237 232 230 231 230 231 232 233 236 238 240 242 245 249 251 252 254 256 257 259 261 260 257 257 259 257 254 253 251 250 251 253 254 258 264 270 277 283 288 296 304 314 326 333 337 339 342 341 338 336 334 330 326 322 318 315 315 317 320 322 323 326 329 330 328 326 326 326 327 328 327 326 325 324 320 315 309 301 295 290 284 281 279 273 265
238 231 224 224 226 227 231 232 234 237 239 242 246 250 253 255 259 261 263 266 268 266 264 262 260 257 254 251 249 250 251 252 254 258 263 269 276 280 286 293 300 310 323 330 334 337 340 340 338 337 336 333 329 324 320 317 316 316 318 320 321 323 326 327 326 325 325 325 324 323 322 321 321 321 319 317 312 302 292 288 284 279 275 272 268
241 235 224 219 223 227 230 231 233 237 240 244 249 253 258 263 266 268 272 277 279 279 278 274 264 254 250 248 247 248 249 250 253 257 263 268 273 276 281 288 293 304 316 324 328 332 335 337 338 338 337 335 332 327 321 316 313 313 315 318 319 321 324 325 325 326 326 325 323 321 320 319 318 318 317 315 312 306 295 288 286 282 274 268 266
237 237 230 220 219 226 231 232 234 238 242 247 251 256 262 265 267 272 277 280 283 285 285 282 269 252 242 241 243 244 246 247 250 255 261 266 269 272 277 282 287 297 308 316 321 325 329 333 337 338 337 335 333 329 322 316 311 310 312 314 315 317 320 322 324 325 326 325 323 321 319 318 316 316 315 313 311 307 300 292 287 283 276 270 266
233 232 228 219 217 228 234 234 238 241 245 250 253 257 260 262 265 269 272 272 276 279 277 273 263 252 244 237 236 239 241 244 248 253 258 262 265 268 272 276 281 289 298 307 313 318 323 327 334 337 335 333 331 329 324 318 313 310 310 310 312 315 317 319 321 323 324 324 323 321 319 318 316 315 314 312 308 305 301 295 290 285 279 274 269
237 231 222 217 218 229 237 239 242 245 248 251 252 254 256 258 261 262 263 266 271 274 272 261 246 247 249 237 229 232 236 240 245 250 255 259 262 265 269 271 276 284 291 299 306 313 317 322 328 332 332 330 329 328 326 321 315 311 309 309 311 313 315 316 318 319 322 322 322 322 321 319 316 315 313 310 305 301 298 294 292 289 281 275 272
240 233 224 225 229 233 239 243 247 248 249 251 251 252 253 255 257 258 261 265 269 271 269 261 245 239 241 235 226 227 232 237 242 248 252 257 261 264 267 270 274 281 287 294 302 308 312 316 320 324 326 326 326 327 325 321 317 312 310 308 309 311 311 314 316 318 320 321 321 321 320 318 316 315 313 310 307 301 297 295 293 290 283 276 273
233 230 227 235 242 242 244 245 247 248 248 250 250 250 251 254 256 259 263 266 270 272 268 262 254 243 237 236 234 231 232 236 239 246 252 257 261 263 266 271 276 282 286 292 300 304 307 310 314 317 320 321 321 322 321 318 316 314 311 308 307 309 311 314 316 317 319 320 320 321 320 318 315 314 314 310 308 305 300 297 294 290 284 278 274
233 230 230 233 238 242 244 243 243 246 248 248 249 248 248 251 254 258 264 267 269 269 266 260 257 252 240 235 238 237 235 237 239 246 252 257 260 263 267 273 278 282 287 293 299 303 306 308 311 313 315 315 315 317 316 314 313 312 310 308 307 307 310 313 315 316 318 319 319 320 321 320 314 313 316 312 307 306 303 299 295 289 284 280 277
237 234 234 234 235 237 239 238 238 242 245 247 248 248 249 251 253 256 260 265 266 264 262 260 257 253 240 231 237 240 237 240 242 247 252 255 259 262 268 274 279 282 287 293 299 304 306 308 309 309 310 311 311 312 312 311 310 310 309 308 308 308 309 312 314 315 317 318 319 319 320 321 316 313 316 314 307 305 304 302 297 291 284 278 275
240 237 238 239 238 237 237 238 236 238 244 247 249 251 252 253 256 257 258 263 265 262 262 260 255 248 235 227 233 238 238 241 243 248 252 253 257 261 267 273 278 283 289 296 302 305 307 307 307 308 309 309 308 309 309 309 309 309 309 309 309 311 311 313 314 316 318 319 320 321 321 321 318 315 316 314 309 307 305 305 302 296 289 281 274
242 241 242 243 242 240 239 239 237 238 242 245 248 252 254 257 258 259 259 262 262 261 263 260 252 242 233 230 234 236 239 241 244 249 251 253 256 260 266 272 278 284 292 299 303 305 306 307 307 307 307 307 307 306 307 308 309 309 309 309 310 311 312 313 314 317 320 321 321 323 323 324 322 318 316 313 312 311 309 307 305 299 293 287 278
246 246 245 242 242 239 234 236 239 239 240 242 246 251 254 257 257 258 259 262 264 263 263 261 253 240 233 234 236 236 239 242 245 249 251 253 257 260 266 272 279 287 293 300 304 306 306 306 306 306 305 305 304 304 305 307 308 309 309 308 309 310 312 312 314 317 320 322 323 323 324 326 325 321 317 315 315 316 314 311 308 303 296 289 281
249 251 245 238 239 239 236 242 249 247 242 243 244 247 252 254 255 258 259 262 263 261 261 261 257 247 236 230 231 233 238 241 245 249 250 254 257 261 267 273 281 288 295 301 304 305 305 305 306 306 306 306 305 305 306 307 308 308 308 308 308 309 310 312 313 315 318 320 322 323 324 326 325 322 320 319 319 318 316 314 311 305 298 291 284
247 251 246 236 237 239 240 247 253 253 250 249 247 247 250 252 254 257 257 259 259 258 259 257 255 250 233 222 224 229 234 239 243 248 251 254 257 262 269 276 284 291 296 300 302 304 305 306 307 307 307 306 306 306 307 308 308 308 309 308 309 309 310 310 311 312 315 318 321 322 324 327 326 324 324 325 325 322 318 314 311 304 298 292 285
250 253 244 238 240 240 243 247 247 250 256 257 252 249 252 255 255 255 255 256 254 254 254 252 256 247 222 213 224 227 231 238 242 248 252 255 259 264 271 278 286 292 296 299 301 303 305 306 306 306 306 306 306 307 308 308 309 309 308 308 308 308 308 308 308 310 313 317 320 321 323 326 326 322 323 326 327 324 321 316 311 305 300 294 287
259 260 244 239 244 245 245 245 243 247 257 260 254 252 256 257 257 255 256 256 252 248 244 245 254 239 212 212 224 222 228 237 242 249 252 255 260 266 274 282 289 293 297 299 301 303 305 306 306 306 306 306 307 307 308 308 308 307 307 306 306 305 305 305 306 309 312 316 319 321 323 326 325 322 321 323 324 324 323 319 313 306 301 296 289
Height
5897 5896 5896 5896 5895 5894 5893 5892 5891 5890 5890 5889 5888 5888 5887 5887 5886 5886 5885 5884 5884 5883 5883 5882 5882 5881 5879 5878 5877 5875 5874 5872 5871 5869 5868 5866 5865 5864 5862 5861 5860 5859 5857 5856 5856 5855 5854 5853 5852 5852 5851 5851 5850 5850 5849 5849 5848 5848 5848 5847 5847 5846 5846 5846 5845 5845 5845 5845 5845 5845 5845 5845 5844 5844 5844 5844 5844 5843 5843 5843 5843 5843 5843 5843 5842
5896 5895 5895 5895 5894 5893 5892 5891 5890 5889 5889 5888 5888 5887 5887 5886 5886 5885 5884 5884 5883 5883 5882 5882 5881 5880 5879 5878 5877 5876 5874 5872 5871 5869 5868 5866 5865 5864 5862 5861 5860 5859 5858 5857 5856 5855 5854 5853 5852 5852 5851 5850 5850 5849 5849 5849 5848 5848 5848 5847 5847 5846 5846 5846 5845 5845 5845 5845 5845 5844 5844 5844 5844 5844 5843 5843 5843 5843 5843 5843 5843 5842 5842 5842 5842
5895 5894 5894 5893 5893 5892 5891 5890 5889 5888 5888 5887 5887 5886 5886 5885 5885 5885 5884 5883 5883 5882 5882 5882 5881 5880 5879 5878 5877 5876 5874 5873 5871 5869 5868 5866 5865 5864 5862 5861 5860 5859 5858 5857 5856 5855 5854 5853 5852 5852 5851 5850 5850 5849 5849 5849 5848 5848 5847 5847 5847 5846 5846 5846 5845 5845 5845 5845 5844 5844 5844 5844 5844 5844 5843 5843 5843 5843 5843 5843 5842 5842 5842 5842 5842
5893 5893 5893 5892 5892 5891 5890 5890 5889 5887 5887 5886 5886 5885 5885 5885 5884 5884 5883 5883 5882 5882 5881 5881 5881 5880 5879 5878 5877 5876 5874 5873 5871 5869 5868 5866 5865 5864 5862 5861 5860 5859 5858 5857 5856 5855 5854 5853 5852 5852 5851 5850 5850 5849 5849 5848 5848 5847 5847 5847 5846 5846 5846 5846 5845 5845 5845 5845 5844 5844 5844 5844 5844 5843 5843 5843 5843 5842 5842 5842 5842 5842 5842 5842 5842
5892 5892 5892 5891 5890 5890 5889 5889 5888 5886 5886 5885 5885 5884 5884 5884 5884 5883 5882 5882 5882 5881 5881 5881 5880 5880 5879 5878 5877 5875 5874 5873 5871 5870 5868 5866 5865 5864 5863 5861 5860 5859 5858 5857 5856 5855 5854 5853 5852 5852 5851 5850 5850 5849 5849 5848 5848 5847 5847 5846 5846 5846 5845 5845 5845 5845 5844 5844 5844 5844 5844 5844 5843 5843 5843 5843 5843 5842 5842 5842 5842 5842 5842 5842 5842
5891 5891 5890 5890 5889 5889 5888 5887 5886 5885 5884 5884 5884 5883 5883 5883 5882 5882 5882 5881 5881 5880 5880 5880 5880 5880 5879 5878 5877 5875 5874 5873 5871 5869 5868 5866 5865 5864 5863 5861 5860 5859 5858 5857 5856 5855 5854 5853 5852 5852 5851 5850 5850 5849 5849 5848 5848 5847 5846 5846 5846 5845 5845 5845 5845 5844 5844 5844 5844 5844 5844 5843 5843 5843 5843 5843 5843 5842 5842 5842 5842 5842 5842 5842 5842
5890 5890 5890 5889 5889 5888 5887 5886 5885 5884 5883 5883 5882 5882 5882 5882 5881 5881 5881 5880 5880 5880 5880 5880 5879 5879 5878 5877 5876 5875 5874 5872 5871 5869 5868 5866 5865 5864 5863 5861 5860 5859 5858 5857 5856 5855 5854 5853 5852 5852 5851 5850 5850 5849 5849 5848 5847 5847 5846 5846 5845 5845 5845 5845 5845 5844 5844 5844 5844 5844 5843 5843 5843 5843 5843 5843 5842 5842 5842 5842 5842 5842 5842 5842 5842
5889 5889 5889 5888 5887 5887 5886 5884 5883 5882 5882 5881 5881 5880 5880 5880 5880 5880 5880 5880 5879 5879 5879 5879 5879 5879 5878 5877 5876 5875 5874 5872 5871 5869 5868 5866 5865 5864 5863 5862 5860 5859 5858 5857 5856 5855 5854 5853 5852 5852 5851 5850 5850 5849 5848 5848 5847 5846 5846 5845 5845 5845 5845 5845 5844 5844 5844 5844 5844 5844 5843 5843 5843 5843 5843 5843 5843 5842 5842 5842 5842 5842 5842 5842 5842
5887 5887 5887 5887 5886 5885 5884 5883 5881 5880 5880 5879 5879 5879 5879 5879 5879 5879 5879 5879 5879 5878 5878 5878 5878 5878 5877 5876 5876 5874 5873 5872 5871 5869 5868 5866 5865 5864 5863 5862 5861 5859 5858 5857 5856 5855 5854 5854 5853 5852 5851 5850 5850 5849 5848 5848 5847 5846 5845 5845 5844 5844 5844 5844 5844 5844 5844 5844 5844 5843 5843 5843 5843 5843 5843 5843 5843 5842 5842 5841 5841 5841 5841 5842 5842
5885 5885 5885 5885 5884 5883 5882 5881 5880 5879 5878 5878 5878 5878 5878 5878 5878 5878 5878 5878 5878 5878 5878 5878 5878 5877 5877 5876 5875 5874 5873 5872 5870 5869 5868 5866 5865 5864 5863 5862 5861 5860 5859 5858 5857 5856 5855 5854 5853 5852 5852 5851 5850 5849 5848 5848 5847 5846 5845 5845 5844 5844 5844 5844 5844 5844 5843 5843 5843 5843 5843 5843 5843 5843 5843 5842 5842 5842 5842 5841 5841 5841 5841 5841 5841
5883 5884 5884 5883 5883 5882 5881 5879 5878 5878 5877 5877 5877 5877 5877 5877 5877 5877 5877 5877 5877 5877 5877 5877 5877 5877 5876 5875 5875 5874 5873 5871 5870 5869 5868 5866 5865 5864 5863 5862 5861 5860 5859 5858 5857 5856 5855 5854 5853 5853 5852 5851 5850 5849 5848 5848 5847 5846 5845 5844 5844 5843 5843 5843 5843 5843 5843 5843 5843 5843 5843 5843 5843 5843 5843 5842 5842 5842 5842 5841 5841 5841 5841 5841 5841
5882 5882 5882 5882 5881 5880 5879 5878 5877 5876 5876 5876 5876 5876 5876 5876 5876 5876 5876 5876 5876 5876 5876 5876 5876 5876 5875 5875 5874 5873 5872 5871 5870 5869 5867 5866 5865 5864 5863 5862 5861 5860 5859 5858 5857 5856 5855 5854 5853 5853 5852 5851 5850 5849 5848 5848 5847 5846 5845 5844 5843 5843 5843 5842 5842 5842 5842 5842 5843 5843 5843 5843 5843 5843 5842 5842 5842 5842 5841 5841 5841 5841 5840 5840 5840
5881 5881 5881 5880 5880 5878 5877 5876 5876 5875 5874 5874 5875 5875 5875 5875 5875 5875 5875 5875 5875 5875 5875 5875 5875 5875 5875 5874 5874 5873 5872 5871 5870 5868 5867 5866 5865 5863 5863 5862 5861 5860 5859 5858 5858 5856 5855 5855 5854 5853 5852 5851 5850 5849 5849 5848 5847 5846 5845 5844 5843 5843 5842 5842 5842 5842 5842 5842 5842 5842 5842 5842 5842 5842 5842 5842 5842 5841 5841 5841 5841 5840 5840 5839 5839
5879 5879 5879 5879 5877 5876 5876 5875 5874 5873 5873 5873 5874 5874 5874 5874 5874 5874 5874 5874 5874 5874 5874 5874 5874 5874 5874 5874 5873 5872 5871 5870 5869 5868 5867 5866 5864 5863 5862 5862 5861 5860 5859 5859 5858 5857 5856 5855 5854 5853 5852 5851 5850 5849 5849 5848 5847 5846 5845 5844 5843 5843 5842 5842 5842 5841 5841 5841 5841 5841 5841 5841 5841 5841 5841 5841 5841 5841 5840 5840 5840 5840 5839 5839 5839
5878 5878 5877 5876 5875 5874 5874 5873 5873 5872 5872 5872 5873 5873 5873 5873 5872 5872 5873 5873 5873 5874 5874 5873 5874 5873 5873 5873 5872 5872 5871 5870 5869 5868 5867 5865 5864 5863 5863 5862 5861 5860 5859 5859 5858 5857 5856 5855 5854 5853 5852 5851 5850 5849 5849 5848 5847 5845 5844 5843 5843 5842 5842 5842 5841 5840 5840 5840 5840 5840 5840 5840 5840 5840 5840 5840 5840 5840 5840 5839 5839 5839 5839 5838 5838
5876 5876 5875 5874 5873 5872 5872 5871 5871 5871 5871 5871 5872 5872 5872 5871 5871 5871 5872 5872 5872 5873 5873 5872 5872 5873 5872 5872 5872 5871 5870 5869 5869 5868 5866 5865 5864 5863 5863 5862 5861 5860 5860 5859 5858 5857 5856 5855 5854 5853 5852 5851 5850 5849 5848 5847 5846 5845 5844 5843 5842 5842 5841 5841 5840 5839 5840 5839 5839 5839 5839 5839 5839 5839 5839 5839 5839 5839 5839 5839 5838 5838 5838 5837 5837
5874 5874 5873 5872 5872 5871 5870 5870 5870 5869 5870 5870 5870 5870 5870 5870 5870 5870 5871 5871 5871 5872 5872 5871 5871 5871 5871 5871 5871 5870 5870 5869 5868 5867 5866 5865 5864 5863 5863 5862 5861 5861 5860 5859 5858 5857 5856 5855 5854 5853 5852 5851 5850 5849 5848 5847 5846 5845 5844 5843 5842 5842 5841 5840 5839 5839 5839 5838 5838 5838 5838 5838 5838 5838 5838 5838 5838 5838 5838 5838 5837 5837 5837 5837 5836
5871 5871 5871 5870 5869 5869 5869 5868 5868 5868 5868 5869 5869 5869 5869 5869 5869 5869 5870 5870 5870 5871 5870 5870 5870 5870 5871 5870 5870 5870 5869 5869 5868 5867 5866 5865 5864 5863 5863 5862 5861 5861 5860 5859 5859 5858 5857 5855 5854 5853 5852 5851 5849 5849 5848 5847 5846 5845 5845 5844 5843 5842 5841 5840 5839 5838 5838 5838 5838 5838 5837 5837 5837 5837 5837 5837 5837 5837 5837 5836 5836 5836 5836 5835 5835
5869 5868 5868 5867 5867 5867 5867 5867 5867 5867 5867 5867 5867 5868 5868 5867 5868 5868 5868 5869 5869 5869 5869 5869 5869 5869 5870 5869 5869 5869 5869 5868 5868 5867 5866 5865 5864 5863 5862 5862 5861 5860 5860 5859 5858 5858 5857 5855 5854 5853 5852 5851 5850 5848 5848 5847 5846 5845 5845 5844 5843 5842 5841 5840 5839 5838 5838 5837 5837 5837 5837 5836 5836 5836 5836 5836 5836 5836 5835 5835 5835 5835 5834 5834 5834
5866 5866 5865 5865 5865 5865 5865 5865 5865 5865 5866 5866 5866 5866 5866 5866 5866 5867 5867 5867 5868 5868 5868 5868 5868 5868 5868 5868 5868 5868 5868 5868 5867 5866 5865 5864 5864 5863 5862 5862 5861 5860 5860 5859 5858 5857 5856 5855 5854 5853 5852 5851 5850 5849 5848 5847 5846 5845 5844 5843 5843 5842 5841 5840 5838 5837 5837 5837 5836 5836 5836 5836 5835 5835 5834 5834 5834 5834 5834 5834 5833 5833 5833 5833 5832
5864 5863 5863 5862 5863 5863 5863 5864 5864 5864 5864 5864 5864 5865 5865 5865 5865 5865 5865 5866 5866 5867 5867 5867 5867 5867 5867 5867 5867 5867 5867 5867 5866 5865 5865 5864 5864 5863 5862 5862 5861 5860 5859 5859 5858 5857 5856 5855 5854 5853 5852 5851 5850 5849 5848 5847 5846 5845 5844 5843 5842 5842 5841 5841 5839 5837 5837 5837 5836 5836 5835 5835 5834 5834 5833 5833 5832 5832 5832 5832 5832 5832 5831 5831 5831
5861 5860 5860 5861 5861 5861 5862 5862 5862 5862 5862 5863 5863 5863 5863 5863 5863 5863 5864 5865 5865 5865 5865 5866 5866 5866 5866 5866 5866 5866 5866 5866 5865 5865 5864 5864 5864 5863 5863 5862 5861 5860 5859 5858 5858 5857 5856 5855 5854 5853 5852 5851 5850 5850 5849 5847 5846 5845 5844 5843 5842 5841 5840 5840 5839 5837 5836 5836 5836 5835 5834 5834 5833 5832 5832 5832 5831 5831 5830 5830 5830 5830 5830 5829 5829
5857 5857 5857 5858 5859 5859 5860 5860 5860 5860 5860 5861 5861 5861 5861 5861 5862 5862 5863 5863 5863 5864 5864 5864 5865 5865 5865 5865 5865 5865 5865 5865 5864 5864 5863 5863 5863 5863 5863 5862 5861 5860 5859 5858 5858 5857 5856 5855 5854 5853 5852 5851 5850 5849 5848 5847 5846 5845 5844 5842 5841 5840 5840 5839 5838 5837 5835 5835 5835 5834 5833 5833 5832 5831 5831 5830 5830 5830 5829 5829 5829 5829 5828 5828 5827
5854 5854 5855 5856 5857 5857 5858 5858 5858 5858 5859 5859 5859 5860 5860 5860 5860 5860 5861 5861 5862 5862 5863 5863 5863 5863 5863 5864 5864 5864 5864 5864 5863 5863 5862 5862 5862 5862 5862 5861 5861 5860 5859 5859 5858 5857 5856 5855 5854 5853 5852 5851 5850 5849 5848 5847 5846 5845 5843 5842 5841 5840 5839 5838 5837 5836 5834 5834 5833 5833 5832 5832 5831 5830 5830 5829 5829 5828 5828 5828 5827 5827 5827 5826 5826
5850 5851 5853 5854 5854 5855 5856 5856 5856 5856 5857 5857 5857 5858 5858 5858 5858 5859 5859 5860 5860 5861 5861 5862 5862 5862 5862 5862 5863 5863 5863 5863 5862 5862 5862 5861 5861 5861 5861 5860 5860 5859 5859 5858 5857 5857 5856 5855 5854 5853 5852 5851 5850 5848 5847 5846 5845 5844 5843 5842 5840 5839 5838 5837 5837 5836 5834 5833 5832 5832 5831 5830 5830 5829 5829 5828 5828 5827 5827 5826 5826 5826 5825 5825 5825
5848 5849 5851 5851 5852 5853 5853 5854 5854 5854 5855 5855 5855 5856 5856 5856 5857 5857 5858 5858 5858 5859 5859 5860 5860 5861 5861 5861 5862 5862 5862 5862 5861 5861 5861 5861 5860 5860 5860 5859 5858 5858 5857 5857 5856 5855 5855 5854 5854 5853 5852 5851 5850 5848 5847 5845 5844 5842 5842 5841 5840 5839 5838 5837 5836 5835 5833 5832 5831 5830 5830 5829 5829 5828 5827 5827 5826 5826 5825 5825 5825 5824 5824 5824 5823
5845 5846 5848 5849 5850 5851 5851 5851 5851 5852 5853 5853 5853 5854 5854 5855 5855 5855 5856 5856 5857 5857 5858 5858 5859 5859 5860 5860 5861 5861 5861 5861 5860 5860 5860 5860 5860 5860 5859 5859 5858 5857 5856 5855 5855 5854 5853 5852 5852 5851 5851 5850 5849 5848 5847 5846 5844 5842 5841 5840 5839 5838 5837 5836 5835 5834 5833 5831 5830 5829 5828 5828 5827 5827 5826 5825 5825 5824 5824 5823 5823 5823 5823 5822 5822
5842 5844 5846 5847 5847 5848 5849 5849 5849 5850 5850 5851 5851 5851 5852 5853 5853 5853 5854 5854 5855 5855 5856 5857 5857 5858 5859 5859 5860 5860 5860 5859 5859 5859 5859 5859 5859 5859 5859 5858 5857 5856 5855 5854 5853 5852 5851 5851 5850 5849 5849 5848 5847 5846 5846 5845 5844 5843 5841 5840 5838 5837 5836 5835 5834 5833 5832 5830 5829 5828 5827 5826 5826 5825 5825 5824 5823 5822 5822 5822 5821 5821 5821 5821 5820
5840 5842 5844 5844 5845 5845 5846 5846 5847 5847 5847 5848 5849 5849 5850 5850 5851 5851 5852 5853 5853 5854 5854 5855 5855 5857 5857 5858 5858 5858 5858 5858 5858 5858 5858 5858 5858 5858 5858 5857 5856 5856 5855 5853 5852 5851 5850 5849 5848 5847 5847 5846 5845 5844 5844 5844 5843 5842 5841 5840 5838 5837 5835 5834 5833 5832 5831 5829 5828 5827 5826 5825 5824 5823 5823 5822 5822 5821 5821 5820 5820 5819 5819 5819 5819
5839 5840 5841 5841 5841 5842 5843 5843 5844 5844 5845 5845 5846 5847 5848 5848 5849 5849 5850 5851 5851 5852 5852 5853 5854 5855 5856 5857 5857 5857 5857 5857 5857 5857 5858 5858 5857 5857 5857 5856 5856 5855 5854 5853 5852 5851 5850 5849 5848 5847 5846 5845 5844 5843 5843 5842 5842 5841 5840 5839 5837 5836 5835 5833 5832 5831 5830 5828 5827 5826 5824 5823 5823 5822 5821 5821 5820 5820 5819 5819 5818 5818 5818 5817 5817
5836 5837 5837 5838 5838 5839 5839 5840 5841 5841 5842 5843 5844 5845 5845 5846 5847 5847 5848 5849 5850 5850 5851 5852 5853 5853 5854 5855 5855 5856 5856 5856 5857 5857 5857 5857 5857 5857 5856 5856 5856 5855 5854 5853 5852 5851 5850 5849 5848 5847 5846 5845 5844 5843 5842 5841 5840 5839 5839 5838 5836 5835 5833 5832 5831 5829 5828 5827 5826 5824 5823 5822 5822 5821 5820 5819 5819 5818 5818 5817 5817 5816 5816 5816 5816
5833 5834 5834 5834 5834 5835 5836 5837 5838 5838 5839 5841 5842 5842 5843 5844 5845 5845 5846 5847 5848 5848 5849 5850 5851 5852 5853 5853 5854 5854 5855 5855 5856 5856 5856 5856 5856 5856 5856 5856 5855 5854 5854 5853 5852 5850 5849 5848 5847 5846 5845 5844 5843 5842 5841 5839 5838 5837 5837 5836 5835 5834 5832 5831 5829 5828 5827 5826 5824 5823 5822 5821 5820 5819 5818 5817 5817 5817 5816 5816 5815 5815 5814 5814 5814
5830 5830 5830 5830 5831 5832 5833 5835 5835 5835 5837 5839 5840 5840 5841 5842 5843 5843 5845 5845 5846 5847 5848 5848 5849 5850 5851 5851 5852 5852 5853 5854 5854 5855 5855 5855 5855 5855 5855 5855 5854 5854 5853 5852 5851 5849 5848 5847 5846 5845 5843 5842 5841 5840 5839 5838 5837 5836 5835 5834 5834 5832 5831 5829 5828 5827 5825 5824 5823 5822 5821 5819 5819 5818 5817 5816 5815 5815 5814 5814 5813 5813 5812 5813 5813
5827 5826 5826 5826 5827 5828 5829 5832 5832 5833 5835 5837 5838 5838 5839 5840 5840 5842 5843 5843 5844 5846 5846 5846 5847 5848 5849 5849 5850 5851 5851 5852 5853 5853 5854 5853 5854 5854 5854 5854 5853 5853 5852 5851 5850 5848 5847 5846 5845 5843 5842 5841 5840 5839 5838 5837 5836 5835 5834 5833 5832 5831 5830 5828 5826 5825 5824 5823 5822 5821 5819 5818 5817 5816 5815 5814 5814 5813 5812 5812 5811 5811 5810 5810 5811
5819 5819 5819 5821 5823 5825 5827 5828 5829 5831 5833 5834 5835 5835 5837 5838 5838 5840 5841 5841 5843 5844 5844 5844 5846 5846 5847 5847 5848 5849 5849 5850 5851 5851 5852 5852 5852 5852 5852 5852 5852 5851 5850 5849 5848 5847 5846 5845 5843 5842 5841 5839 5838 5837 5836 5835 5834 5833 5832 5831 5830 5829 5828 5827 5826 5824 5822 5821 5820 5819 5818 5817 5815 5814 5813 5812 5812 5811 5810 5809 5809 5808 5808 5808 5808
5815 5814 5813 5816 5820 5822 5824 5825 5827 5829 5830 5831 5833 5833 5835 5836 5837 5839 5840 5840 5842 5842 5843 5844 5844 5845 5845 5845 5846 5846 5847 5848 5849 5849 5850 5850 5850 5850 5850 5850 5850 5849 5849 5848 5847 5846 5845 5844 5843 5841 5839 5838 5837 5835 5834 5833 5832 5831 5831 5829 5828 5827 5826 5825 5824 5823 5821 5819 5818 5817 5816 5815 5814 5812 5811 5810 5809 5809 5808 5807 5807 5806 5806 5806 5806
5816 5817 5814 5813 5818 5820 5821 5823 5824 5826 5827 5829 5830 5831 5834 5836 5836 5838 5839 5840 5841 5841 5842 5843 5843 5842 5842 5843 5843 5844 5845 5846 5847 5847 5848 5848 5849 5849 5849 5849 5848 5848 5847 5846 5846 5845 5844 5843 5841 5840 5838 5837 5836 5834 5833 5832 5831 5830 5829 5828 5826 5825 5824 5823 5822 5821 5819 5818 5816 5815 5814 5813 5812 5811 5810 5808 5807 5806 5806 5805 5805 5804 5804 5804 5804
5812 5817 5816 5812 5815 5818 5819 5821 5822 5823 5825 5827 5828 5831 5833 5833 5834 5836 5837 5838 5838 5839 5840 5841 5841 5840 5838 5839 5841 5841 5842 5843 5844 5845 5846 5847 5847 5847 5847 5847 5847 5846 5846 5845 5844 5843 5843 5842 5840 5839 5837 5836 5835 5834 5832 5831 5830 5829 5828 5827 5825 5823 5822 5821 5819 5818 5817 5816 5814 5813 5812 5811 5810 5809 5808 5806 5805 5804 5803 5803 5802 5802 5801 5801 5801
5807 5813 5815 5813 5813 5816 5818 5819 5820 5821 5823 5825 5827 5829 5830 5831 5832 5833 5834 5834 5834 5835 5836 5836 5838 5840 5838 5836 5837 5839 5840 5841 5842 5844 5845 5845 5845 5846 5846 5846 5846 5845 5845 5844 5843 5842 5841 5840 5839 5838 5836 5835 5834 5832 5831 5829 5828 5827 5826 5825 5823 5822 5821 5819 5818 5816 5815 5814 5812 5811 5810 5808 5807 5807 5805 5804 5802 5801 5801 5800 5800 5800 5799 5799 5799
5807 5810 5814 5813 5812 5815 5816 5817 5817 5819 5821 5823 5825 5827 5827 5828 5829 5830 5830 5831 5831 5832 5832 5832 5834 5837 5839 5837 5835 5836 5838 5839 5840 5842 5843 5843 5844 5844 5844 5844 5844 5844 5843 5842 5841 5841 5840 5838 5837 5836 5834 5833 5832 5831 5829 5828 5826 5825 5824 5823 5822 5820 5819 5817 5816 5814 5813 5812 5810 5809 5807 5806 5805 5804 5802 5801 5800 5799 5798 5798 5797 5797 5797 5797 5796
5807 5810 5813 5814 5813 5815 5815 5815 5816 5818 5820 5821 5823 5824 5825 5826 5827 5827 5828 5828 5829 5829 5830 5831 5832 5833 5836 5837 5834 5834 5836 5837 5839 5840 5841 5842 5842 5842 5843 5843 5843 5842 5842 5841 5840 5839 5838 5837 5836 5834 5833 5831 5830 5829 5828 5826 5825 5823 5822 5821 5820 5818 5817 5816 5814 5813 5812 5810 5809 5808 5806 5805 5802 5801 5799 5797 5797 5797 5796 5795 5795 5794 5794 5793 5793
5804 5808 5811 5812 5813 5814 5814 5814 5815 5816 5818 5819 5821 5822 5824 5824 5825 5826 5826 5826 5827 5828 5829 5830 5831 5831 5832 5835 5835 5834 5835 5836 5837 5838 5839 5840 5840 5841 5841 5841 5841 5840 5840 5839 5838 5837 5836 5835 5834 5833 5831 5830 5828 5827 5826 5824 5823 5822 5821 5819 5818 5816 5815 5814 5813 5812 5810 5809 5807 5806 5805 5803 5800 5798 5797 5795 5793 5793 5793 5792 5792 5791 5790 5790 5789
5799 5803 5805 5807 5808 5809 5810 5811 5813 5815 5816 5818 5819 5820 5821 5822 5823 5824 5824 5825 5826 5827 5828 5829 5830 5831 5831 5832 5834 5834 5834 5835 5836 5836 5837 5838 5839 5839 5839 5839 5839 5838 5837 5837 5836 5835 5834 5833 5833 5831 5830 5828 5827 5825 5824 5822 5821 5820 5819 5818 5817 5815 5814 5813 5812 5810 5809 5808 5806 5804 5803 5800 5797 5794 5795 5794 5791 5790 5790 5789 5789 5788 5787 5787 5786
5796 5799 5801 5802 5802 5803 5806 5808 5811 5813 5815 5816 5818 5819 5820 5821 5821 5822 5822 5823 5824 5825 5826 5828 5828 5829 5829 5829 5831 5833 5833 5833 5834 5835 5836 5836 5837 5837 5837 5837 5836 5836 5836 5835 5834 5833 5832 5831 5831 5830 5828 5827 5825 5823 5822 5820 5819 5818 5817 5816 5815 5814 5813 5812 5811 5808 5807 5806 5804 5803 5801 5799 5794 5790 5790 5791 5790 5788 5787 5786 5786 5785 5785 5784 5783
5795 5797 5799 5799 5799 5801 5805 5808 5810 5812 5814 5816 5817 5818 5819 5819 5820 5821 5821 5822 5822 5823 5825 5826 5826 5827 5828 5827 5829 5831 5832 5832 5833 5833 5834 5834 5835 5835 5835 5835 5834 5834 5834 5833 5832 5831 5830 5829 5828 5827 5826 5825 5823 5821 5819 5818 5817 5816 5815 5814 5813 5812 5811 5810 5809 5806 5804 5802 5801 5800 5798 5797 5793 5789 5786 5786 5787 5787 5785 5783 5783 5782 5782 5781 5780
5792 5795 5797 5796 5798 5802 5805 5807 5809 5811 5813 5814 5815 5816 5817 5818 5818 5819 5820 5820 5821 5822 5823 5824 5824 5826 5827 5826 5828 5829 5830 5830 5831 5831 5832 5832 5832 5832 5833 5832 5832 5832 5831 5831 5830 5829 5828 5827 5826 5825 5824 5823 5821 5819 5817 5815 5814 5813 5812 5811 5810 5809 5808 5807 5806 5804 5802 5799 5798 5797 5796 5794 5791 5788 5784 5782 5782 5783 5782 5780 5779 5778 5777 5777 5776
5790 5793 5793 5793 5797 5800 5802 5804 5806 5809 5810 5811 5813 5814 5815 5816 5816 5817 5817 5818 5819 5820 5822 5822 5823 5824 5824 5825 5826 5827 5828 5828 5829 5830 5830 5830 5830 5830 5830 5830 5830 5830 5829 5828 5827 5826 5826 5825 5824 5823 5822 5821 5819 5817 5815 5813 5812 5811 5810 5809 5807 5806 5805 5803 5802 5802 5801 5798 5795 5794 5792 5791 5789 5786 5782 5779 5777 5777 5777 5776 5774 5772 5772 5771 5771
5788 5789 5789 5791 5794 5797 5799 5802 5804 5806 5808 5809 5810 5811 5812 5813 5814 5814 5815 5816 5817 5818 5819 5821 5822 5822 5822 5822 5823 5824 5825 5826 5827 5828 5828 5828 5828 5828 5828 5828 5828 5827 5827 5826 5825 5824 5823 5822 5821 5820 5819 5818 5817 5815 5814 5812 5810 5809 5807 5806 5805 5804 5802 5801 5799 5799 5799 5797 5794 5791 5790 5788 5786 5783 5780 5777 5774 5772 5771 5771 5770 5768 5766 5766 5767
5785 5786 5787 5789 5792 5795 5798 5800 5803 5805 5807 5807 5808 5809 5810 5810 5811 5811 5812 5813 5815 5816 5817 5818 5820 5821 5821 5819 5819 5821 5823 5823 5825 5825 5826 5826 5826 5826 5826 5825 5825 5825 5825 5824 5823 5822 5821 5820 5818 5817 5816 5815 5814 5813 5811 5810 5808 5807 5805 5804 5802 5801 5799 5798 5797 5796 5795 5795 5793 5790 5788 5786 5783 5780 5778 5776 5773 5769 5767 5766 5766 5764 5763 5762 5762
5783 5783 5785 5788 5790 5792 5796 5798 5801 5803 5804 5805 5805 5806 5807 5808 5808 5809 5810 5811 5812 5813 5814 5815 5817 5819 5819 5818 5817 5819 5821 5822 5823 5823 5824 5824 5824 5824 5824 5823 5823 5823 5823 5822 5821 5820 5818 5817 5816 5815 5814 5812 5811 5810 5809 5807 5806 5805 5804 5802 5800 5799 5797 5796 5794 5793 5792 5791 5790 5788 5786 5784 5782 5778 5776 5774 5771 5768 5765 5762 5761 5760 5759 5758 5757
5781 5782 5784 5786 5788 5790 5793 5795 5798 5800 5801 5802 5803 5804 5805 5805 5806 5807 5808 5809 5810 5810 5811 5813 5814 5816 5817 5816 5816 5817 5819 5820 5821 5822 5822 5822 5822 5822 5821 5821 5821 5821 5820 5820 5818 5817 5816 5815 5814 5812 5811 5810 5809 5807 5806 5805 5804 5802 5801 5800 5798 5797 5795 5794 5792 5790 5789 5788 5787 5785 5782 5781 5779 5776 5774 5771 5768 5765 5762 5760 5757 5756 5755 5754 5753